When you browse on this site, cookies collect data to enhance your experience and personalize the content and advertising you see.
Visit our Privacy Policy to learn more. By continuing to use the site, you agree to this use of cookies and data.
  • In United Kingdom
  • List of Countries
  • For 7 days
  • Water Temperature
  • Weather Map
  • Weather Widgets
  • user-avatar
    Login

    Hourly Weather Petrushky

    Today, 18 September, Wednesday

    Time Temperature Precipitation Wind Pressure Humidity
    00:00 +13°C° 0 mm 4 mps 741 mmHg 70%
    01:00 +12°C° 0 mm 4 mps 741 mmHg 72%
    02:00 +12°C° 0 mm 3 mps 741 mmHg 74%
    03:00 +12°C° 0.3 mm 4 mps 740 mmHg 76%
    04:00 +12°C° 0.3 mm 5 mps 740 mmHg 78%
    05:00 +10°C° 0.3 mm 5 mps 739 mmHg 80%
    06:00 +10°C° 0.7 mm 6 mps 740 mmHg 78%
    07:00 +10°C° 0.7 mm 6 mps 740 mmHg 76%
    08:00 +11°C° 0 mm 7 mps 740 mmHg 73%
    09:00 +11°C° 0 mm 8 mps 741 mmHg 63%
    10:00 +12°C° 0 mm 9 mps 741 mmHg 54%
    11:00 +13°C° 0 mm 10 mps 742 mmHg 44%
    12:00 +13°C° 0 mm 10 mps 742 mmHg 43%
    13:00 +12°C° 0 mm 10 mps 742 mmHg 42%
    14:00 +12°C° 0 mm 10 mps 743 mmHg 41%
    15:00 +12°C° 0 mm 10 mps 743 mmHg 45%
    16:00 +11°C° 0 mm 9 mps 744 mmHg 49%
    17:00 +10°C° 0 mm 9 mps 744 mmHg 53%
    18:00 +10°C° 0 mm 8 mps 745 mmHg 58%
    19:00 +9°C° 0 mm 7 mps 745 mmHg 64%
    20:00 +8°C° 0 mm 6 mps 746 mmHg 69%
    21:00 +8°C° 0 mm 6 mps 746 mmHg 71%
    22:00 +8°C° 0 mm 6 mps 746 mmHg 73%
    23:00 +8°C° 0 mm 7 mps 747 mmHg 75%

    Tomorrow, 19 September, Thursday

    Time Temperature Precipitation Wind Pressure Humidity
    00:00 +7°C° 0 mm 6 mps 747 mmHg 76%
    01:00 +7°C° 0 mm 6 mps 748 mmHg 77%
    02:00 +7°C° 0 mm 5 mps 748 mmHg 78%
    03:00 +6°C° 0 mm 5 mps 748 mmHg 78%
    04:00 +6°C° 0 mm 5 mps 748 mmHg 78%
    05:00 +6°C° 0 mm 4 mps 749 mmHg 79%
    06:00 +7°C° 0 mm 5 mps 749 mmHg 74%
    07:00 +8°C° 0 mm 5 mps 749 mmHg 69%
    08:00 +9°C° 0 mm 6 mps 749 mmHg 65%
    09:00 +11°C° 0 mm 6 mps 750 mmHg 59%
    10:00 +13°C° 0 mm 6 mps 750 mmHg 53%
    11:00 +15°C° 0 mm 6 mps 750 mmHg 46%
    12:00 +15°C° 0.2 mm 6 mps 750 mmHg 44%
    13:00 +16°C° 0.2 mm 6 mps 750 mmHg 41%
    14:00 +16°C° 0.2 mm 6 mps 750 mmHg 39%
    15:00 +16°C° 0 mm 6 mps 750 mmHg 39%
    16:00 +15°C° 0 mm 5 mps 750 mmHg 40%
    17:00 +15°C° 0 mm 4 mps 750 mmHg 40%
    18:00 +14°C° 0 mm 4 mps 750 mmHg 44%
    19:00 +12°C° 0 mm 3 mps 750 mmHg 47%
    20:00 +11°C° 0 mm 3 mps 750 mmHg 51%
    21:00 +10°C° 0 mm 3 mps 750 mmHg 58%
    22:00 +9°C° 0 mm 3 mps 750 mmHg 65%
    23:00 +8°C° 0 mm 3 mps 750 mmHg 72%

    Day after tomorrow, 20 September, Friday

    Time Temperature Precipitation Wind Pressure Humidity
    00:00 +7°C° 0 mm 3 mps 750 mmHg 76%
    01:00 +7°C° 0 mm 3 mps 750 mmHg 80%
    02:00 +5°C° 0 mm 3 mps 750 mmHg 84%
    03:00 +5°C° 0 mm 3 mps 750 mmHg 87%
    04:00 +4°C° 0 mm 3 mps 750 mmHg 90%
    05:00 +4°C° 0 mm 3 mps 750 mmHg 93%
    06:00 +7°C° 0 mm 3 mps 750 mmHg 85%
    07:00 +8°C° 0 mm 3 mps 750 mmHg 78%
    08:00 +8°C° 0 mm 4 mps 750 mmHg 71%
    09:00 +11°C° 0.1 mm 4 mps 750 mmHg 63%
    10:00 +13°C° 0.1 mm 5 mps 750 mmHg 55%
    11:00 +14°C° 0.1 mm 5 mps 749 mmHg 48%
    12:00 +14°C° 0.4 mm 6 mps 749 mmHg 46%
    13:00 +15°C° 0.4 mm 6 mps 749 mmHg 45%
    14:00 +15°C° 0.4 mm 6 mps 749 mmHg 44%
    15:00 +13°C° 0.3 mm 6 mps 749 mmHg 50%
    16:00 +11°C° 0.3 mm 6 mps 749 mmHg 56%
    17:00 +9°C° 0.3 mm 6 mps 749 mmHg 62%
    18:00 +8°C° 0 mm 5 mps 750 mmHg 66%
    19:00 +7°C° 0 mm 5 mps 751 mmHg 69%
    20:00 +6°C° 0 mm 5 mps 751 mmHg 73%
    21:00 +5°C° 0 mm 4 mps 751 mmHg 76%
    22:00 +5°C° 0 mm 4 mps 751 mmHg 78%
    23:00 +4°C° 0 mm 4 mps 752 mmHg 80%

    21 September, Saturday

    Time Temperature Precipitation Wind Pressure Humidity
    00:00 +4°C° 0 mm 4 mps 752 mmHg 80%
    01:00 +4°C° 0 mm 4 mps 752 mmHg 80%
    02:00 +2°C° 0 mm 5 mps 752 mmHg 80%
    03:00 +3°C° 0 mm 4 mps 753 mmHg 82%
    04:00 +1°C° 0 mm 4 mps 753 mmHg 84%
    05:00 +1°C° 0 mm 4 mps 753 mmHg 86%
    06:00 +3°C° 0 mm 4 mps 753 mmHg 78%
    07:00 +4°C° 0 mm 4 mps 754 mmHg 69%
    08:00 +6°C° 0 mm 5 mps 754 mmHg 61%
    09:00 +8°C° 0 mm 5 mps 754 mmHg 52%
    10:00 +10°C° 0 mm 5 mps 754 mmHg 44%
    11:00 +12°C° 0 mm 5 mps 754 mmHg 36%
    12:00 +13°C° 0 mm 5 mps 754 mmHg 35%
    13:00 +14°C° 0 mm 5 mps 753 mmHg 34%
    14:00 +15°C° 0 mm 5 mps 753 mmHg 32%
    15:00 +15°C° 0 mm 5 mps 753 mmHg 35%
    16:00 +14°C° 0 mm 5 mps 752 mmHg 38%
    17:00 +14°C° 0 mm 4 mps 752 mmHg 41%
    18:00 +13°C° 0 mm 4 mps 752 mmHg 46%
    19:00 +12°C° 0 mm 4 mps 752 mmHg 50%
    20:00 +11°C° 0 mm 3 mps 752 mmHg 54%
    21:00 +12°C° 0 mm 4 mps 752 mmHg 53%
    22:00 +12°C° 0 mm 5 mps 752 mmHg 53%
    23:00 +13°C° 0 mm 5 mps 752 mmHg 52%

    22 September, Sunday

    Time Temperature Precipitation Wind Pressure Humidity
    00:00 +12°C° 0 mm 5 mps 752 mmHg 56%
    01:00 +10°C° 0 mm 5 mps 751 mmHg 60%
    02:00 +9°C° 0 mm 5 mps 751 mmHg 64%
    03:00 +9°C° 0 mm 5 mps 751 mmHg 66%
    04:00 +8°C° 0 mm 5 mps 751 mmHg 68%
    05:00 +8°C° 0 mm 5 mps 751 mmHg 70%
    06:00 +9°C° 0 mm 6 mps 751 mmHg 65%
    07:00 +11°C° 0 mm 6 mps 750 mmHg 60%
    08:00 +12°C° 0 mm 7 mps 750 mmHg 54%
    09:00 +15°C° 0 mm 7 mps 750 mmHg 49%
    10:00 +17°C° 0 mm 7 mps 750 mmHg 45%
    11:00 +20°C° 0 mm 7 mps 750 mmHg 40%
    12:00 +21°C° 0 mm 7 mps 750 mmHg 39%
    13:00 +21°C° 0 mm 7 mps 749 mmHg 37%
    14:00 +22°C° 0 mm 7 mps 749 mmHg 36%
    15:00 +22°C° 0 mm 6 mps 749 mmHg 39%
    16:00 +21°C° 0 mm 5 mps 749 mmHg 42%
    17:00 +20°C° 0 mm 4 mps 749 mmHg 45%
    18:00 +18°C° 0 mm 4 mps 749 mmHg 54%
    19:00 +16°C° 0 mm 3 mps 750 mmHg 62%
    20:00 +14°C° 0 mm 2 mps 750 mmHg 71%
    21:00 +13°C° 0 mm 2 mps 750 mmHg 75%
    22:00 +12°C° 0 mm 2 mps 750 mmHg 79%
    23:00 +10°C° 0 mm 2 mps 751 mmHg 84%

    23 September, Monday

    Time Temperature Precipitation Wind Pressure Humidity
    00:00 +10°C° 0 mm 2 mps 751 mmHg 83%
    01:00 +9°C° 0 mm 2 mps 751 mmHg 82%
    02:00 +9°C° 0 mm 2 mps 751 mmHg 81%
    03:00 +8°C° 0 mm 2 mps 751 mmHg 79%
    04:00 +8°C° 0 mm 3 mps 751 mmHg 77%
    05:00 +8°C° 0 mm 3 mps 751 mmHg 75%
    06:00 +9°C° 0 mm 3 mps 750 mmHg 70%
    07:00 +10°C° 0 mm 4 mps 750 mmHg 65%
    08:00 +12°C° 0 mm 5 mps 750 mmHg 60%
    09:00 +14°C° 0 mm 5 mps 750 mmHg 55%
    10:00 +16°C° 0 mm 5 mps 749 mmHg 49%
    11:00 +19°C° 0 mm 6 mps 749 mmHg 43%
    12:00 +20°C° 0 mm 6 mps 748 mmHg 40%
    13:00 +21°C° 0 mm 6 mps 747 mmHg 36%
    14:00 +22°C° 0 mm 6 mps 746 mmHg 32%
    15:00 +21°C° 0 mm 5 mps 746 mmHg 35%
    16:00 +21°C° 0 mm 4 mps 745 mmHg 37%
    17:00 +20°C° 0 mm 3 mps 745 mmHg 39%
    18:00 +19°C° 0.1 mm 4 mps 744 mmHg 47%
    19:00 +18°C° 0.1 mm 4 mps 744 mmHg 54%
    20:00 +15°C° 0.1 mm 4 mps 744 mmHg 61%
    21:00 +15°C° 0.4 mm 4 mps 743 mmHg 67%
    22:00 +15°C° 0.4 mm 4 mps 743 mmHg 74%
    23:00 +14°C° 0.4 mm 5 mps 743 mmHg 80%
    Show more